| time (UTC) | temp F | wind direction | speed MPH | gust MPH | rain 1hr in | rain 24hr in | rain mn in | humidity % | barometer mb |
| 20260508011555 | 51 | 0 | 0.0 | 0.0 | 0.00 | 0.00 | 0.00 | 55 | 1015.5 |
| 20260508010056 | 53 | 0 | 0.0 | 0.0 | 0.00 | 0.00 | 0.00 | 49 | 1015.4 |
| 20260508004555 | 54 | 0 | 0.0 | 0.0 | 0.00 | 0.00 | 0.00 | 47 | 1015.3 |
| 20260508003105 | 56 | 0 | 0.0 | 0.0 | 0.00 | 0.00 | 0.00 | 44 | 1015.2 |
| 20260508001552 | 57 | 0 | 1.0 | 3.0 | 0.00 | 0.00 | 0.00 | 44 | 1015.0 |
| 20260508000048 | 58 | 304 | 1.0 | 4.0 | 0.00 | 0.00 | 0.00 | 43 | 1015.0 |
| 20260507234545 | 58 | 307 | 3.0 | 6.0 | 0.00 | 0.00 | 0.00 | 40 | 1014.9 |
| 20260507233059 | 59 | 288 | 3.0 | 7.0 | 0.00 | 0.00 | 0.00 | 40 | 1014.8 |
| 20260507231547 | 60 | 360 | 2.0 | 6.0 | 0.00 | 0.00 | 0.00 | 40 | 1014.8 |
| 20260507230045 | 60 | 360 | 1.0 | 5.0 | 0.00 | 0.00 | 0.00 | 38 | 1014.8 |
| 20260507224556 | 60 | 279 | 3.0 | 7.0 | 0.00 | 0.00 | 0.00 | 38 | 1014.8 |
| 20260507223048 | 61 | 1 | 3.0 | 5.0 | 0.00 | 0.00 | 0.00 | 44 | 1014.7 |
| 20260507221551 | 61 | 359 | 1.0 | 10.0 | 0.00 | 0.00 | 0.00 | 39 | 1014.8 |
| 20260507220051 | 61 | 359 | 3.0 | 7.0 | 0.00 | 0.00 | 0.00 | 38 | 1014.8 |
| 20260507214606 | 61 | 12 | 1.0 | 9.0 | 0.00 | 0.00 | 0.00 | 38 | 1014.8 |
| 20260507213100 | 60 | 331 | 6.0 | 9.0 | 0.00 | 0.00 | 0.00 | 38 | 1014.8 |
| 20260507211549 | 61 | 19 | 3.0 | 8.0 | 0.00 | 0.00 | 0.00 | 38 | 1014.7 |
| 20260507210054 | 61 | 11 | 5.0 | 9.0 | 0.00 | 0.00 | 0.00 | 44 | 1014.6 |
| 20260507204547 | 60 | 60 | 6.0 | 10.0 | 0.00 | 0.00 | 0.00 | 40 | 1014.6 |
| 20260507203056 | 60 | 3 | 5.0 | 9.0 | 0.00 | 0.00 | 0.00 | 40 | 1014.6 |
| 20260507201546 | 60 | 1 | 4.0 | 8.0 | 0.00 | 0.00 | 0.00 | 41 | 1014.6 |
| 20260507200050 | 59 | 266 | 4.0 | 10.0 | 0.00 | 0.00 | 0.00 | 38 | 1014.6 |
| 20260507194614 | 60 | 359 | 5.0 | 12.0 | 0.00 | 0.00 | 0.00 | 40 | 1014.7 |
| 20260507193049 | 60 | 344 | 3.0 | 12.0 | 0.00 | 0.00 | 0.00 | 39 | 1014.8 |
| 20260507191549 | 60 | 264 | 3.0 | 10.0 | 0.00 | 0.00 | 0.00 | 42 | 1014.9 |
| 20260507190052 | 59 | 55 | 6.0 | 12.0 | 0.00 | 0.00 | 0.00 | 44 | 1015.0 |
| 20260507184551 | 59 | 24 | 4.0 | 9.0 | 0.00 | 0.00 | 0.00 | 45 | 1015.0 |
| 20260507183049 | 58 | 312 | 4.0 | 10.0 | 0.00 | 0.00 | 0.00 | 41 | 1015.0 |
| 20260507181554 | 57 | 360 | 4.0 | 13.0 | 0.00 | 0.00 | 0.00 | 42 | 1015.3 |
| 20260507180048 | 58 | 1 | 4.0 | 11.0 | 0.00 | 0.00 | 0.00 | 42 | 1015.3 |
| 20260507174557 | 58 | 323 | 5.0 | 11.0 | 0.00 | 0.00 | 0.00 | 43 | 1015.7 |
| 20260507173118 | 57 | 273 | 7.0 | 12.0 | 0.00 | 0.00 | 0.00 | 39 | 1015.6 |
| 20260507171554 | 56 | 360 | 4.0 | 13.0 | 0.00 | 0.00 | 0.00 | 46 | 1015.9 |
| 20260507170058 | 56 | 333 | 5.0 | 12.0 | 0.00 | 0.00 | 0.00 | 42 | 1016.0 |
| 20260507164555 | 55 | 295 | 7.0 | 13.0 | 0.00 | 0.00 | 0.00 | 43 | 1016.1 |
| 20260507163051 | 55 | 278 | 4.0 | 11.0 | 0.00 | 0.00 | 0.00 | 42 | 1016.3 |
| 20260507161602 | 55 | 295 | 7.0 | 14.0 | 0.00 | 0.00 | 0.00 | 42 | 1016.3 |
| 20260507160050 | 56 | 309 | 5.0 | 10.0 | 0.00 | 0.00 | 0.00 | 51 | 1016.5 |
| 20260507154555 | 55 | 300 | 2.0 | 8.0 | 0.00 | 0.00 | 0.00 | 46 | 1016.3 |
| 20260507153059 | 54 | 265 | 6.0 | 13.0 | 0.00 | 0.00 | 0.00 | 43 | 1016.3 |
| 20260507151551 | 54 | 309 | 3.0 | 12.0 | 0.00 | 0.00 | 0.00 | 45 | 1016.3 |
| 20260507150055 | 54 | 16 | 2.0 | 7.0 | 0.00 | 0.00 | 0.00 | 46 | 1016.2 |
| 20260507144551 | 53 | 308 | 3.0 | 8.0 | 0.00 | 0.00 | 0.00 | 47 | 1016.2 |
| 20260507143049 | 53 | 29 | 5.0 | 11.0 | 0.00 | 0.00 | 0.00 | 51 | 1016.4 |
| 20260507141602 | 53 | 15 | 5.0 | 11.0 | 0.00 | 0.00 | 0.00 | 47 | 1016.4 |
| 20260507140045 | 53 | 300 | 3.0 | 8.0 | 0.00 | 0.00 | 0.00 | 52 | 1016.4 |
| 20260507134554 | 52 | 13 | 2.0 | 8.0 | 0.00 | 0.00 | 0.00 | 55 | 1016.4 |
| 20260507133049 | 51 | 347 | 4.0 | 10.0 | 0.00 | 0.00 | 0.00 | 56 | 1016.3 |
| 20260507131548 | 50 | 38 | 3.0 | 6.0 | 0.00 | 0.00 | 0.00 | 59 | 1016.4 |
| 20260507130048 | 49 | 359 | 5.0 | 7.0 | 0.00 | 0.00 | 0.00 | 61 | 1016.3 |
| 20260507124547 | 48 | 4 | 3.0 | 5.0 | 0.00 | 0.00 | 0.00 | 67 | 1016.3 |
| 20260507123050 | 47 | 11 | 1.0 | 3.0 | 0.00 | 0.00 | 0.00 | 71 | 1016.7 |
| 20260507121549 | 46 | 0 | 0.0 | 2.0 | 0.00 | 0.00 | 0.00 | 74 | 1016.6 |
| 20260507120100 | 44 | 0 | 0.0 | 0.0 | 0.00 | 0.00 | 0.00 | 77 | 1016.6 |
| 20260507114549 | 43 | 0 | 0.0 | 0.0 | 0.00 | 0.00 | 0.00 | 79 | 1016.6 |
| 20260507113049 | 42 | 0 | 1.0 | 3.0 | 0.00 | 0.00 | 0.00 | 80 | 1016.5 |
| 20260507111543 | 41 | 273 | 1.0 | 2.0 | 0.00 | 0.00 | 0.00 | 83 | 1016.2 |
| 20260507110047 | 41 | 0 | 0.0 | 0.0 | 0.00 | 0.00 | 0.00 | 85 | 1015.8 |
| 20260507104552 | 41 | 0 | 0.0 | 0.0 | 0.00 | 0.00 | 0.00 | 85 | 1015.6 |
| 20260507103046 | 41 | 0 | 0.0 | 3.0 | 0.00 | 0.00 | 0.00 | 86 | 1015.6 |
| 20260507101557 | 41 | 0 | 0.0 | 1.0 | 0.00 | 0.00 | 0.00 | 86 | 1015.7 |
| 20260507100047 | 42 | 315 | 0.0 | 3.0 | 0.00 | 0.00 | 0.00 | 86 | 1015.6 |
| 20260507094550 | 42 | 0 | 0.0 | 0.0 | 0.00 | 0.00 | 0.00 | 86 | 1015.7 |
| 20260507093049 | 42 | 0 | 1.0 | 2.0 | 0.00 | 0.00 | 0.00 | 86 | 1015.6 |
| 20260507091548 | 42 | 0 | 0.0 | 3.0 | 0.00 | 0.00 | 0.00 | 87 | 1015.4 |
| 20260507090054 | 43 | 0 | 0.0 | 0.0 | 0.00 | 0.00 | 0.00 | 86 | 1015.3 |
| 20260507084548 | 43 | 0 | 0.0 | 1.0 | 0.00 | 0.01 | 0.00 | 86 | 1015.3 |
| 20260507083042 | 43 | 0 | 0.0 | 2.0 | 0.00 | 0.01 | 0.00 | 85 | 1015.2 |
| 20260507081550 | 43 | 0 | 0.0 | 0.0 | 0.00 | 0.01 | 0.00 | 86 | 1015.1 |
| 20260507080056 | 43 | 0 | 0.0 | 0.0 | 0.00 | 0.01 | 0.00 | 86 | 1015.2 |
| 20260507074551 | 44 | 0 | 0.0 | 0.0 | 0.00 | 0.11 | 0.00 | 85 | 1015.1 |
| 20260507073121 | 44 | 0 | 0.0 | 2.0 | 0.00 | 0.11 | 0.00 | 84 | 1015.1 |
| 20260507071549 | 45 | 0 | 0.0 | 0.0 | 0.00 | 0.11 | 0.00 | 84 | 1015.2 |
| 20260507070051 | 45 | 0 | 0.0 | 0.0 | 0.00 | 0.11 | 0.00 | 84 | 1015.2 |
| 20260507064609 | 45 | 0 | 0.0 | 2.0 | 0.00 | 0.25 | 0.00 | 84 | 1015.1 |
| 20260507063117 | 45 | 0 | 0.0 | 0.0 | 0.00 | 0.25 | 0.00 | 84 | 1015.4 |
| 20260507061556 | 45 | 0 | 0.0 | 0.0 | 0.00 | 0.25 | 0.00 | 84 | 1015.5 |
| 20260507060051 | 44 | 0 | 0.0 | 0.0 | 0.00 | 0.25 | 0.00 | 84 | 1015.4 |
| 20260507054556 | 44 | 0 | 0.0 | 0.0 | 0.00 | 0.33 | 0.00 | 86 | 1015.3 |
| 20260507053053 | 44 | 0 | 0.0 | 0.0 | 0.00 | 0.33 | 0.00 | 86 | 1015.5 |
| 20260507051552 | 45 | 0 | 0.0 | 0.0 | 0.00 | 0.33 | 0.00 | 85 | 1015.6 |
| 20260507050057 | 45 | 0 | 0.0 | 0.0 | 0.00 | 0.33 | 0.00 | 84 | 1015.4 |
| 20260507044551 | 46 | 0 | 0.0 | 0.0 | 0.00 | 0.42 | 0.00 | 83 | 1015.6 |
| 20260507043051 | 47 | 0 | 0.0 | 0.0 | 0.00 | 0.42 | 0.00 | 81 | 1015.7 |
| 20260507041553 | 47 | 0 | 0.0 | 0.0 | 0.00 | 0.42 | 0.00 | 79 | 1015.7 |
| 20260507040103 | 48 | 0 | 0.0 | 0.0 | 0.00 | 0.42 | 0.00 | 79 | 1015.7 |
| 20260507034602 | 48 | 0 | 0.0 | 0.0 | 0.00 | 0.42 | 0.42 | 81 | 1015.6 |
| 20260507033105 | 48 | 0 | 0.0 | 0.0 | 0.00 | 0.42 | 0.42 | 77 | 1015.5 |
| 20260507031555 | 48 | 0 | 0.0 | 0.0 | 0.00 | 0.42 | 0.42 | 75 | 1015.5 |
| 20260507030054 | 49 | 0 | 0.0 | 0.0 | 0.00 | 0.42 | 0.42 | 76 | 1015.5 |
| 20260507024605 | 49 | 0 | 0.0 | 0.0 | 0.00 | 0.44 | 0.42 | 75 | 1015.6 |
| 20260507023054 | 50 | 0 | 0.0 | 0.0 | 0.00 | 0.44 | 0.42 | 73 | 1015.4 |
| 20260507021601 | 51 | 0 | 0.0 | 0.0 | 0.00 | 0.44 | 0.42 | 71 | 1015.4 |
| 20260507020055 | 52 | 0 | 0.0 | 0.0 | 0.00 | 0.44 | 0.42 | 70 | 1015.1 |
| 20260507014555 | 52 | 0 | 0.0 | 0.0 | 0.00 | 0.45 | 0.42 | 68 | 1015.2 |
| 20260507013103 | 53 | 0 | 0.0 | 0.0 | 0.00 | 0.45 | 0.42 | 67 | 1015.1 |